TimeEDT,TemperatureF,Dew PointF,Humidity,Sea Level PressureIn,VisibilityMPH,Wind Direction,Wind SpeedMPH,Gust SpeedMPH,PrecipitationIn,Events,Conditions,WindDirDegrees,DateUTC
12:54 AM,54.0,37.9,55,29.99,10.0,North,6.9,-,N/A,,Overcast,350,2011-10-28 04:54:00
1:54 AM,53.1,35.1,50,30.02,10.0,North,8.1,-,N/A,,Overcast,350,2011-10-28 05:54:00
2:54 AM,52.0,36.0,54,30.04,10.0,NNE,12.7,-,N/A,,Overcast,30,2011-10-28 06:54:00
3:54 AM,50.0,37.0,61,30.06,10.0,NE,9.2,-,0.00,,Overcast,50,2011-10-28 07:54:00
4:54 AM,48.0,35.1,61,30.08,10.0,NE,16.1,20.7,N/A,,Overcast,40,2011-10-28 08:54:00
5:54 AM,46.4,35.6,66,30.11,10.0,NNE,10.4,-,N/A,,Overcast,30,2011-10-28 09:54:00
6:54 AM,46.0,32.0,58,30.13,10.0,NNE,10.4,-,N/A,,Overcast,30,2011-10-28 10:54:00
7:54 AM,45.0,32.0,60,30.15,10.0,NE,12.7,-,0.00,,Overcast,40,2011-10-28 11:54:00
8:54 AM,44.1,33.1,65,30.18,10.0,ENE,13.8,18.4,N/A,,Overcast,60,2011-10-28 12:54:00
9:54 AM,43.0,32.0,65,30.20,10.0,ENE,8.1,-,N/A,,Overcast,60,2011-10-28 13:54:00
10:54 AM,42.1,28.9,60,30.21,10.0,NE,15.0,19.6,N/A,,Overcast,50,2011-10-28 14:54:00
11:54 AM,43.0,30.9,62,30.21,10.0,ENE,8.1,-,N/A,,Overcast,60,2011-10-28 15:54:00
12:54 PM,42.8,32.0,66,30.21,10.0,NNE,11.5,-,N/A,Rain,Light Rain,20,2011-10-28 16:54:00
1:54 PM,39.9,35.1,83,30.21,10.0,NNE,9.2,-,0.02,Rain,Light Rain,30,2011-10-28 17:54:00
2:54 PM,39.9,35.1,83,30.20,10.0,NE,8.1,-,0.00,,Overcast,40,2011-10-28 18:54:00
3:54 PM,39.0,36.0,89,30.18,9.0,NE,6.9,-,0.03,Rain,Light Rain,50,2011-10-28 19:54:00
4:25 PM,39.2,37.4,93,30.17,10.0,NNE,5.8,-,0.00,,Overcast,20,2011-10-28 20:25:00
4:39 PM,39.2,37.4,93,30.16,7.0,NNE,10.4,-,0.00,Rain,Light Rain,30,2011-10-28 20:39:00
4:47 PM,39.2,35.6,87,30.17,10.0,NNE,8.1,-,0.00,Rain,Light Rain,20,2011-10-28 20:47:00
4:54 PM,39.0,36.0,89,30.18,10.0,NNE,9.2,-,0.00,Rain,Light Rain,20,2011-10-28 20:54:00
5:23 PM,39.2,35.6,87,30.17,10.0,NNE,8.1,-,0.00,Rain,Light Rain,20,2011-10-28 21:23:00
5:38 PM,39.2,35.6,87,30.16,7.0,NE,10.4,-,0.01,Rain,Light Rain,40,2011-10-28 21:38:00
5:54 PM,39.0,36.0,89,30.18,7.0,North,4.6,-,0.01,Rain,Light Rain,10,2011-10-28 21:54:00
6:10 PM,37.4,35.6,93,30.16,6.0,NNE,9.2,-,0.01,Rain,Light Rain,20,2011-10-28 22:10:00
6:26 PM,37.4,35.6,93,30.16,8.0,NNE,8.1,-,0.02,Rain,Light Rain,30,2011-10-28 22:26:00
6:47 PM,37.4,35.6,93,30.16,8.0,NNE,10.4,-,0.02,Rain,Light Rain,30,2011-10-28 22:47:00
6:54 PM,37.9,36.0,93,30.17,7.0,NNE,12.7,-,0.03,Rain,Light Rain,20,2011-10-28 22:54:00
7:04 PM,37.4,35.6,93,30.16,7.0,North,8.1,-,0.00,Rain,Light Rain,10,2011-10-28 23:04:00
7:25 PM,37.4,35.6,93,30.17,9.0,North,6.9,-,0.01,Rain,Light Rain,10,2011-10-28 23:25:00
7:54 PM,37.0,36.0,96,30.17,10.0,NNE,10.4,-,0.02,Rain,Light Rain,30,2011-10-28 23:54:00
8:54 PM,37.0,36.0,96,30.16,10.0,NNE,10.4,18.4,0.00,,Overcast,30,2011-10-29 00:54:00
9:54 PM,37.0,35.1,93,30.15,6.0,NE,12.7,-,0.00,Rain,Light Rain,40,2011-10-29 01:54:00
10:54 PM,36.0,36.0,100,30.14,4.0,NNE,11.5,-,0.02,Rain,Light Rain,20,2011-10-29 02:54:00
11:54 PM,36.0,36.0,100,30.13,4.0,North,4.6,-,0.02,Rain,Light Rain,10,2011-10-29 03:54:00